Regional Weather Roundup
Issued by NWS Goodland, KS

Home | Current Version | Previous Version | Text Only | Print | Product List | Glossary Off
Versions: 1 2 3 4 5 6 7 8 9 10 11 12 13 14 15 16 17 18 19 20 21 22 23 24 25 26 27 28 29 30 31 32 33 34 35 36 37 38 39 40 41 42 43 44 45 46 47 48 49 50

000
ASUS43 KGLD 291708
RWRGLD

GOODLAND FORECAST AREA HOURLY WEATHER ROUNDUP
NATIONAL WEATHER SERVICE GOODLAND KS
1100 AM MDT SUN MAR 29 2015

...OFFICIAL OBSERVATIONS...

CITY           SKY/WX    TMP DP  RH WIND       PRES   REMARKS
GOODLAND KS    SUNNY     58  27  30 NW20G36   30.24S
HILL CITY KS   SUNNY     65  28  24 N24G36    30.16R
IMPERIAL NEB     N/A     58  28  32 N26G35    30.23R
MCCOOK NEB     SUNNY     62  28  27 N28G40    30.18R
AKRON CO       SUNNY     53  23  31 N28G36    30.30R
BURLINGTON CO  SUNNY     56  21  25 N24G36    30.26S
LIMON CO       SUNNY     51  21  30 N23       30.32S
$$

...UNOFFICIAL OBSERVATIONS...

CITY           SKY/WX    TMP DP  RH WIND       PRES   REMARKS
COLBY KS       SUNNY     61  34  36 NW23G36   30.22R
GOVE KS          N/A     62  32  32 MISG        N/A
LENORA KS        N/A     61  32  33 MISG        N/A
NORTON KS      SUNNY     63  19  19 NW22G30   30.15R
SHARON SPRINGS   N/A     60  25  26 NE24G35     N/A
TRIBUNE KS     SUNNY     63  32  31 N32G44    30.24R
KIT CARSON CO    N/A     57  24  28 MISG        N/A
YUMA CO          N/A     56  23  27 N21G30      N/A
$$



USA.gov is the U.S. government's official web portal to all federal, state and local government web resources and services.